| time (UTC) | temp F | wind direction | speed MPH | gust MPH | rain 1hr in | rain 24hr in | rain mn in | humidity % | barometer mb |
| 20260507144524 | 60 | 213 | 6.0 | 8.0 | 0.00 | 0.00 | 0.00 | 53 | 1019.9 |
| 20260507143021 | 59 | 212 | 5.0 | 9.0 | 0.00 | 0.00 | 0.00 | 56 | 1020.0 |
| 20260507141516 | 58 | 217 | 2.0 | 7.0 | 0.00 | 0.00 | 0.00 | 60 | 1020.3 |
| 20260507140017 | 56 | 212 | 3.0 | 7.0 | 0.00 | 0.00 | 0.00 | 64 | 1020.2 |
| 20260507134524 | 55 | 207 | 3.0 | 6.0 | 0.00 | 0.00 | 0.00 | 68 | 1020.2 |
| 20260507133008 | 54 | 203 | 1.0 | 3.0 | 0.00 | 0.00 | 0.00 | 76 | 1020.3 |
| 20260507131626 | 51 | 219 | 0.0 | 2.0 | 0.00 | 0.00 | 0.00 | 88 | 1020.1 |
| 20260507130057 | 47 | 166 | 0.0 | 0.0 | 0.00 | 0.00 | 0.00 | 95 | 1020.1 |
| 20260507124554 | 42 | 166 | 0.0 | 0.0 | 0.00 | 0.00 | 0.00 | 95 | 1020.0 |
| 20260507123049 | 40 | 167 | 0.0 | 0.0 | 0.00 | 0.00 | 0.00 | 94 | 1019.7 |
| 20260507121548 | 38 | 167 | 0.0 | 1.0 | 0.00 | 0.00 | 0.00 | 94 | 1019.7 |
| 20260507120048 | 37 | 127 | 0.0 | 0.0 | 0.00 | 0.00 | 0.00 | 93 | 1019.6 |
| 20260507114547 | 37 | 127 | 0.0 | 0.0 | 0.00 | 0.00 | 0.00 | 93 | 1019.4 |
| 20260507113046 | 37 | 127 | 0.0 | 0.0 | 0.00 | 0.00 | 0.00 | 93 | 1019.3 |
| 20260507111545 | 37 | 127 | 0.0 | 0.0 | 0.00 | 0.00 | 0.00 | 93 | 1019.3 |
| 20260507110059 | 37 | 127 | 0.0 | 0.0 | 0.00 | 0.00 | 0.00 | 93 | 1019.1 |
| 20260507104546 | 37 | 127 | 0.0 | 0.0 | 0.00 | 0.00 | 0.00 | 93 | 1019.2 |
| 20260507103045 | 37 | 102 | 0.0 | 0.0 | 0.00 | 0.00 | 0.00 | 93 | 1019.3 |
| 20260507101546 | 38 | 102 | 0.0 | 0.0 | 0.00 | 0.00 | 0.00 | 92 | 1019.3 |
| 20260507100039 | 38 | 102 | 0.0 | 0.0 | 0.00 | 0.00 | 0.00 | 92 | 1019.4 |
| 20260507094538 | 38 | 102 | 0.0 | 0.0 | 0.00 | 0.00 | 0.00 | 92 | 1019.4 |
| 20260507093036 | 38 | 102 | 0.0 | 0.0 | 0.00 | 0.00 | 0.00 | 92 | 1019.4 |
| 20260507091539 | 39 | 102 | 0.0 | 0.0 | 0.00 | 0.00 | 0.00 | 92 | 1019.2 |
| 20260507090040 | 39 | 102 | 0.0 | 0.0 | 0.00 | 0.00 | 0.00 | 91 | 1019.2 |
| 20260507084538 | 39 | 102 | 0.0 | 0.0 | 0.00 | 0.00 | 0.00 | 91 | 1019.1 |
| 20260507083037 | 39 | 102 | 0.0 | 0.0 | 0.00 | 0.00 | 0.00 | 90 | 1019.1 |
| 20260507081530 | 40 | 102 | 0.0 | 0.0 | 0.00 | 0.00 | 0.00 | 89 | 1019.3 |
| 20260507080030 | 41 | 102 | 0.0 | 0.0 | 0.00 | 0.00 | 0.00 | 90 | 1019.5 |
| 20260507074540 | 41 | 214 | 0.0 | 1.0 | 0.00 | 0.00 | 0.00 | 91 | 1019.9 |
| 20260507073029 | 40 | 214 | 0.0 | 1.0 | 0.00 | 0.00 | 0.00 | 91 | 1019.7 |
| 20260507071528 | 40 | 214 | 0.0 | 0.0 | 0.00 | 0.00 | 0.00 | 91 | 1019.4 |
| 20260507070027 | 40 | 214 | 0.0 | 1.0 | 0.00 | 0.00 | 0.00 | 91 | 1019.2 |
| 20260507064529 | 40 | 214 | 0.0 | 0.0 | 0.00 | 0.00 | 0.00 | 91 | 1019.3 |
| 20260507063028 | 40 | 214 | 0.0 | 0.0 | 0.00 | 0.00 | 0.00 | 90 | 1019.2 |
| 20260507061522 | 40 | 226 | 0.0 | 1.0 | 0.00 | 0.00 | 0.00 | 89 | 1019.1 |
| 20260507060023 | 41 | 239 | 0.0 | 1.0 | 0.00 | 0.00 | 0.00 | 89 | 1019.7 |
| 20260507054516 | 41 | 239 | 0.0 | 0.0 | 0.00 | 0.00 | 0.00 | 89 | 1020.1 |
| 20260507053015 | 41 | 239 | 0.0 | 0.0 | 0.00 | 0.00 | 0.00 | 88 | 1020.0 |
| 20260507051510 | 42 | 239 | 0.0 | 1.0 | 0.00 | 0.00 | 0.00 | 88 | 1019.7 |
| 20260507050006 | 42 | 239 | 0.0 | 0.0 | 0.00 | 0.00 | 0.00 | 87 | 1019.3 |
| 20260507044504 | 42 | 239 | 0.0 | 1.0 | 0.00 | 0.00 | 0.00 | 87 | 1019.2 |
| 20260507043002 | 43 | 239 | 0.0 | 1.0 | 0.00 | 0.00 | 0.00 | 86 | 1019.1 |
| 20260507041501 | 43 | 238 | 0.0 | 1.0 | 0.00 | 0.00 | 0.00 | 86 | 1018.9 |
| 20260507040104 | 43 | 14 | 0.0 | 1.0 | 0.00 | 0.00 | 0.00 | 85 | 1019.0 |
| 20260507034601 | 44 | 13 | 0.0 | 1.0 | 0.00 | 0.00 | 0.00 | 85 | 1019.1 |
| 20260507033054 | 44 | 84 | 0.0 | 0.0 | 0.00 | 0.00 | 0.00 | 83 | 1018.8 |
| 20260507031550 | 45 | 84 | 0.0 | 0.0 | 0.00 | 0.00 | 0.00 | 81 | 1018.7 |
| 20260507030049 | 46 | 84 | 0.0 | 0.0 | 0.00 | 0.00 | 0.00 | 79 | 1018.6 |
| 20260507024556 | 48 | 84 | 0.0 | 0.0 | 0.00 | 0.00 | 0.00 | 77 | 1018.6 |
| 20260507023047 | 49 | 84 | 0.0 | 0.0 | 0.00 | 0.00 | 0.00 | 73 | 1018.2 |
| 20260507021549 | 50 | 84 | 0.0 | 0.0 | 0.00 | 0.00 | 0.00 | 68 | 1018.1 |
| 20260507020052 | 52 | 84 | 0.0 | 0.0 | 0.00 | 0.00 | 0.00 | 66 | 1018.0 |
| 20260507014546 | 54 | 84 | 0.0 | 0.0 | 0.00 | 0.00 | 0.00 | 62 | 1017.8 |
| 20260507013146 | 56 | 84 | 0.0 | 2.0 | 0.00 | 0.00 | 0.00 | 59 | 1017.7 |
| 20260507011546 | 57 | 63 | 1.0 | 4.0 | 0.00 | 0.00 | 0.00 | 58 | 1017.6 |
| 20260507010054 | 58 | 54 | 2.0 | 5.0 | 0.00 | 0.00 | 0.00 | 54 | 1017.6 |
| 20260507004543 | 58 | 52 | 3.0 | 5.0 | 0.00 | 0.00 | 0.00 | 54 | 1017.5 |
| 20260507003041 | 58 | 51 | 2.0 | 5.0 | 0.00 | 0.00 | 0.00 | 53 | 1017.5 |
| 20260507001546 | 59 | 44 | 4.0 | 9.0 | 0.00 | 0.00 | 0.00 | 51 | 1017.3 |
| 20260507000040 | 60 | 54 | 3.0 | 9.0 | 0.00 | 0.00 | 0.00 | 48 | 1017.2 |
| 20260506234540 | 62 | 46 | 4.0 | 9.0 | 0.00 | 0.00 | 0.00 | 46 | 1017.0 |
| 20260506233043 | 61 | 85 | 4.0 | 11.0 | 0.00 | 0.00 | 0.00 | 47 | 1016.9 |
| 20260506231539 | 62 | 38 | 5.0 | 12.0 | 0.00 | 0.00 | 0.00 | 46 | 1016.8 |
| 20260506230043 | 62 | 63 | 6.0 | 12.0 | 0.00 | 0.00 | 0.00 | 46 | 1016.5 |
| 20260506224540 | 61 | 43 | 8.0 | 13.0 | 0.00 | 0.00 | 0.00 | 46 | 1016.4 |
| 20260506223042 | 61 | 42 | 7.0 | 15.0 | 0.00 | 0.00 | 0.00 | 45 | 1016.2 |
| 20260506221543 | 61 | 50 | 6.0 | 14.0 | 0.00 | 0.00 | 0.00 | 48 | 1016.0 |
| 20260506220045 | 61 | 37 | 7.0 | 14.0 | 0.00 | 0.00 | 0.00 | 48 | 1016.0 |
| 20260506214535 | 62 | 54 | 5.0 | 16.0 | 0.00 | 0.00 | 0.00 | 48 | 1016.0 |
| 20260506213035 | 62 | 68 | 6.0 | 12.0 | 0.00 | 0.00 | 0.00 | 46 | 1016.2 |
| 20260506211539 | 62 | 51 | 4.0 | 14.0 | 0.00 | 0.00 | 0.00 | 49 | 1016.3 |
| 20260506210034 | 62 | 65 | 9.0 | 16.0 | 0.00 | 0.00 | 0.00 | 49 | 1016.5 |
| 20260506204532 | 61 | 124 | 4.0 | 13.0 | 0.00 | 0.00 | 0.00 | 49 | 1016.5 |
| 20260506203031 | 61 | 56 | 5.0 | 12.0 | 0.00 | 0.00 | 0.00 | 51 | 1016.7 |
| 20260506201530 | 61 | 342 | 5.0 | 13.0 | 0.00 | 0.00 | 0.00 | 52 | 1016.9 |
| 20260506200029 | 60 | 8 | 5.0 | 13.0 | 0.00 | 0.00 | 0.00 | 49 | 1017.1 |
| 20260506194535 | 61 | 61 | 7.0 | 14.0 | 0.00 | 0.00 | 0.00 | 49 | 1017.2 |
| 20260506193032 | 61 | 82 | 3.0 | 13.0 | 0.00 | 0.00 | 0.00 | 51 | 1017.2 |
| 20260506191527 | 62 | 52 | 8.0 | 13.0 | 0.00 | 0.00 | 0.00 | 47 | 1017.3 |
| 20260506190028 | 61 | 44 | 9.0 | 17.0 | 0.00 | 0.00 | 0.00 | 50 | 1017.5 |
| 20260506184527 | 62 | 53 | 5.0 | 13.0 | 0.00 | 0.00 | 0.00 | 48 | 1017.7 |
| 20260506183025 | 61 | 87 | 4.0 | 14.0 | 0.00 | 0.00 | 0.00 | 49 | 1017.8 |
| 20260506181521 | 60 | 89 | 3.0 | 13.0 | 0.00 | 0.00 | 0.00 | 53 | 1017.8 |
| 20260506180021 | 60 | 72 | 6.0 | 14.0 | 0.00 | 0.00 | 0.00 | 50 | 1018.2 |
| 20260506174519 | 60 | 70 | 4.0 | 11.0 | 0.00 | 0.00 | 0.00 | 52 | 1018.2 |
| 20260506173016 | 59 | 37 | 5.0 | 15.0 | 0.00 | 0.00 | 0.00 | 54 | 1018.3 |
| 20260506171517 | 58 | 69 | 7.0 | 15.0 | 0.00 | 0.00 | 0.00 | 52 | 1018.3 |
| 20260506170114 | 59 | 113 | 2.0 | 14.0 | 0.00 | 0.00 | 0.00 | 56 | 1018.4 |
| 20260506164512 | 58 | 62 | 8.0 | 14.0 | 0.00 | 0.00 | 0.00 | 52 | 1018.6 |
| 20260506163010 | 58 | 213 | 3.0 | 12.0 | 0.00 | 0.00 | 0.00 | 55 | 1018.7 |
| 20260506161507 | 57 | 61 | 6.0 | 16.0 | 0.00 | 0.00 | 0.00 | 55 | 1018.7 |
| 20260506160004 | 55 | 59 | 7.0 | 16.0 | 0.00 | 0.00 | 0.00 | 58 | 1018.6 |
| 20260506154502 | 55 | 53 | 10.0 | 20.0 | 0.00 | 0.00 | 0.00 | 59 | 1018.5 |
| 20260506153059 | 55 | 56 | 10.0 | 16.0 | 0.00 | 0.00 | 0.00 | 60 | 1018.3 |
| 20260506151556 | 53 | 136 | 5.0 | 16.0 | 0.00 | 0.00 | 0.00 | 66 | 1017.9 |